FENGYUN 1C DEB

Satellite information

Favourite Embed

Satellite Type and Status

DEBRISIN ORBIT

Key statistics

Satellite FENGYUN 1C DEB at a glance.

Uptime

9615

Days in orbit

Revolutions

≈ 14.6

Per day

Orbit

SSO

Sun Synchronous Orbit

Inclination

98.1

Latest

Satellite identification and parameters

Extended collection of information and parameters for FENGYUN 1C DEB.

Object identification

Identified? True

Debris? True

Object name: FENGYUN 1C DEB

International designator: 1999-025BCZ

Object number (NORAD): 31007

Object ID (CCSDS): 31007

Country: PEOPLES REPUBLIC OF CHINA (PRC)

Current information (Y/N): Y

RCS size: SMALL

Orbital parameters

Period: 98.895 minutes

Inclination: 98.0831 deg

SMA: 7083.945 km

Apoapsis: 754.943 km

Periapsis: 656.677 km

RAAN: 239.9559 deg

Eccentricy: 0.00693581

Argument of periapsis: 356.1766 deg

Mean anomaly: 3.8894 deg

Mean motion: 14.56095862 rev/day

Mean motion (dot): 0.00027157 rev/day2

B* drag term: 0.0059507972 1/REarth

Two-line elements (TLE)

Creation date: Sept. 2, 2025, 10:20 a.m.

Reference frame: TEME

Reference center: EARTH

Epoch: Sept. 2, 2025, 6:04 a.m. UTC

TLE line 0: 0 FENGYUN 1C DEB

TLE line 1: 1 31007U 99025BCZ 25245.25345472 .00027157 00000-0 59508-2 0 9997

TLE line 2: 2 31007 98.0831 239.9559 0069358 356.1766 3.8894 14.56095862966165

Live tracking on map

Real-time ground track for satellite FENGYUN 1C DEB.

In-orbit conjunctions

A list of the most updated potential collisions computed for object FENGYUN 1C DEB.

Target Orbit TCA Probability of collision Miss distance Type
DELTA 1 R/B SSO 2025-05-28 06:04:38 0.000163641 109.0 (m) ROCKET BODY
GB 3 LEO 2024-06-04 05:19:20 0.0002407529 662.0 (m) PAYLOAD

Associated space launch

Chinese polar orbiting meteorological satellite

FENGYUN 1C DEB was lifted into orbit during the mission ‘Long March 4B | Feng Yun 1C’, on board a Long March 4B space rocket.

The launch took place on May 10, 1999, 1:33 a.m. from Launch Complex 7.

For more information about the launch, click the button.

Launch to space Long March 4B | Feng Yun 1C
Long March 4B | Feng Yun 1C

Agency: N/A

Status: Launch Successful

Launch date: May 10, 1999, 1:33 a.m. UTC

Rocket: Long March 4B

Launch pad: Launch Complex 7

Location: Taiyuan Satellite Launch Center, People's Republic of China

...

Latest news about this satellite

There are no fresh news available about this satellite. Check back as we update our databases every day.


Newsletter sign-up

Weekly statistics, charts and insights to help you stay on top of the space industry.